Weather History for Elefsis, Greece

Change the Weather History Date:

Friday, June 6, 2014

  Actual Average Record
Temperature  
Mean Temperature 74 °F -  
Max Temperature 87 °F 86 °F 87 °F (2003)
Min Temperature 60 °F 68 °F 60 °F (2014)
Cooling Degree Days 8    
Growing Degree Days 24 (Base 50)    
Moisture  
Dew Point 52 °F    
Average Humidity 51    
Maximum Humidity 82    
Minimum Humidity 22    
Precipitation  
Precipitation 0.00 in - - ()
Sea Level Pressure  
Sea Level Pressure 29.90 in    
Wind  
Wind Speed 4 mph ()    
Max Wind Speed 14 mph    
Max Gust Speed 24 mph    
Visibility 6.2 miles    
Events      
Averages and records for this station are not official NWS values.
T = Trace of Precipitation, MM = Missing Value Source: Averaged Metar Reports

Daily Weather History Graph

Daily Weather History Graph

Search for Another Location

Airport:

Trip Planner

Search our weather history database for the weather conditions in past years. The results will help you decide how hot, cold, wet, or windy it might be!

Date:

Astronomy

Jun. 06, 2014 Rise Set
Actual Time 6:03 AM EEST 8:45 PM EEST
Civil Twilight 5:32 AM EEST 9:17 PM EEST
Nautical Twilight 4:53 AM EEST 9:55 PM EEST
Astronomical Twilight 4:09 AM EEST 10:39 PM EEST
Moon 1:53 PM EEST (6/6) 1:39 AM EEST (6/6)
Length of Visible Light 15h 44m
Length of Day
14h 42m
First Quarter, 55% of the Moon is Illuminated
Jun 6
First Quarter
Jun 13
Full
Jun 19
Last Quarter
Jun 27
New
Jul 5
First Quarter

Hourly Weather History & Observations

Time (EEST) Temp. Heat Index Dew Point Humidity Pressure Visibility Wind Dir Wind Speed Gust Speed Precip Events Conditions
12:20 AM 66.2 °F - 57.2 °F 73% 29.89 in 6.2 mi Calm Calm - N/A   Partly Cloudy
12:50 AM 66.2 °F - 57.2 °F 73% 29.89 in 6.2 mi Calm Calm - N/A   Partly Cloudy
1:20 AM 64.4 °F - 57.2 °F 77% 29.89 in 6.2 mi Calm Calm - N/A   Partly Cloudy
1:50 AM 62.6 °F - 57.2 °F 82% 29.89 in 6.2 mi North 4.6 mph - N/A   Partly Cloudy
2:20 AM 64.4 °F - 57.2 °F 77% 29.89 in 6.2 mi Calm Calm - N/A   Partly Cloudy
2:50 AM 62.6 °F - 57.2 °F 82% 29.89 in 6.2 mi Calm Calm - N/A   Partly Cloudy
3:20 AM 62.6 °F - 57.2 °F 82% 29.89 in - Calm Calm - N/A   Clear
3:50 AM 62.6 °F - 57.2 °F 82% 29.89 in - Calm Calm - N/A   Clear
4:20 AM 62.6 °F - 55.4 °F 77% 29.89 in - Calm Calm - N/A   Clear
4:50 AM 62.6 °F - 55.4 °F 77% 29.89 in - Calm Calm - N/A   Clear
5:20 AM 60.8 °F - 55.4 °F 82% 29.89 in 6.2 mi Calm Calm - N/A   Partly Cloudy
5:50 AM 60.8 °F - 55.4 °F 82% 29.89 in 6.2 mi Calm Calm - N/A   Partly Cloudy
6:20 AM 60.8 °F - 55.4 °F 82% 29.89 in 6.2 mi Calm Calm - N/A   Partly Cloudy
6:50 AM 60.8 °F - 55.4 °F 82% 29.89 in 6.2 mi Calm Calm - N/A   Partly Cloudy
7:20 AM 66.2 °F - 57.2 °F 73% 29.89 in 6.2 mi NW 5.8 mph - N/A   Scattered Clouds
7:50 AM 69.8 °F - 53.6 °F 56% 29.92 in 6.2 mi NW 5.8 mph - N/A   Scattered Clouds
8:20 AM 73.4 °F - 51.8 °F 47% 29.92 in 6.2 mi NW 6.9 mph - N/A   Scattered Clouds
8:50 AM 75.2 °F - 50.0 °F 41% 29.92 in 6.2 mi NW 8.1 mph - N/A   Scattered Clouds
9:20 AM 75.2 °F - 50.0 °F 41% 29.92 in 6.2 mi NNW 4.6 mph - N/A   Scattered Clouds
9:50 AM 78.8 °F - 48.2 °F 34% 29.92 in 6.2 mi NNW 4.6 mph - N/A   Partly Cloudy
10:20 AM 78.8 °F - 48.2 °F 34% 29.92 in 6.2 mi North 5.8 mph - N/A   Partly Cloudy
10:50 AM 82.4 °F - 46.4 °F 28% 29.92 in 6.2 mi North 11.5 mph - N/A   Partly Cloudy
11:20 AM 80.6 °F - 46.4 °F 30% 29.92 in 6.2 mi NNW 13.8 mph - N/A   Partly Cloudy
11:50 AM 82.4 °F - 46.4 °F 28% 29.92 in 6.2 mi North 11.5 mph - N/A   Partly Cloudy
12:20 PM 84.2 °F - 46.4 °F 27% 29.92 in 6.2 mi North 11.5 mph - N/A   Partly Cloudy
12:50 PM 84.2 °F - 46.4 °F 27% 29.92 in 6.2 mi NNW 11.5 mph - N/A   Partly Cloudy
1:20 PM 84.2 °F - 46.4 °F 27% 29.89 in 6.2 mi NNE 11.5 mph - N/A   Partly Cloudy
1:50 PM 86.0 °F - 44.6 °F 23% 29.89 in 6.2 mi NNE 13.8 mph - N/A   Partly Cloudy
2:20 PM 86.0 °F - 44.6 °F 23% 29.89 in 6.2 mi North 10.4 mph 24.2 mph N/A   Partly Cloudy
2:50 PM 84.2 °F - 44.6 °F 25% 29.89 in 6.2 mi North 11.5 mph - N/A   Scattered Clouds
3:20 PM 86.0 °F - 44.6 °F 23% 29.89 in 6.2 mi NW 11.5 mph 23.0 mph N/A   Scattered Clouds
3:50 PM 86.0 °F - 44.6 °F 23% 29.89 in 6.2 mi North 11.5 mph - N/A   Scattered Clouds
4:20 PM 86.0 °F - 44.6 °F 23% 29.89 in 6.2 mi NNE 8.1 mph - N/A   Scattered Clouds
4:50 PM 84.2 °F - 44.6 °F 25% 29.86 in 6.2 mi NNE 9.2 mph - N/A   Scattered Clouds
5:20 PM 87.8 °F - 44.6 °F 22% 29.86 in 6.2 mi North 11.5 mph 23.0 mph N/A   Scattered Clouds
5:50 PM 80.6 °F 80.3 °F 53.6 °F 39% 29.86 in 6.2 mi North 10.4 mph - N/A   Scattered Clouds
6:50 PM 80.6 °F 80.8 °F 57.2 °F 45% 29.89 in 6.2 mi North 9.2 mph - N/A   Scattered Clouds
7:20 PM 80.6 °F 80.8 °F 57.2 °F 45% 29.89 in 6.2 mi SSW 3.5 mph - N/A   Scattered Clouds
7:50 PM 77.0 °F - 57.2 °F 50% 29.89 in 6.2 mi South 5.8 mph - N/A   Scattered Clouds
8:20 PM 77.0 °F - 57.2 °F 50% 29.89 in 6.2 mi South 9.2 mph - N/A   Scattered Clouds
8:50 PM 71.6 °F - 53.6 °F 53% 29.89 in 6.2 mi SSW 8.1 mph - N/A   Scattered Clouds
9:20 PM 71.6 °F - 53.6 °F 53% 29.89 in 6.2 mi WSW 8.1 mph - N/A   Scattered Clouds
9:50 PM 71.6 °F - 53.6 °F 53% 29.92 in 6.2 mi Calm Calm - N/A   Scattered Clouds
10:20 PM 71.6 °F - 53.6 °F 53% 29.92 in 6.2 mi Calm Calm - N/A   Scattered Clouds
10:50 PM 69.8 °F - 55.4 °F 60% 29.92 in 6.2 mi Calm Calm - N/A   Partly Cloudy
11:20 PM 69.8 °F - 55.4 °F 60% 29.92 in 6.2 mi Calm Calm - N/A   Partly Cloudy
11:50 PM 68.0 °F - 55.4 °F 64% 29.92 in 6.2 mi Calm Calm - N/A   Partly Cloudy